Tiempo atmosférico en la estación meteorológica de A Lama, Pontevedra (395 m.)



Fecha
DESCASC
Temp. máxima en grados centígrados (hora)
DESCASC
Temp. mínima en grados centígrados (hora)
DESCASC
Temp. media en grados centígrados
DESCASC
Racha de viento máxima en m/sg (hora)
DESCASC
Velocidad máxima media en intervalos de 10 minutos(hora)
DESCASC
Precipitaciones diarias en mm
DESCASC
Precipitaciones de 00:00 a 06:00 en mm
DESCASC
Precipitaciones de 06:00 a 12:00 en mm
DESCASC
Precipitaciones de 12:00 a 18:00 en mm
DESCASC
Precipitaciones de 18:00 a 24:00 en mm
DESCASC
16-01-2021 13.6 (13:50) -4.3 (-00:0) 4.7 4.44 (01:10) 2.5 (14:40) 0 0 0 0 0
13-01-2021 11.8 (15:20) -3.8 (-00:0) 4 3.89 (00:30) 2.22 (17:40) 0 0 0 0 0
12-01-2021 10.8 (14:10) -3.2 (-00:0) 3.8 3.61 (14:30) 2.22 (01:40) 0 0 0 0 0
05-01-2021 6.8 (13:50) -3.2 (-00:0) 1.8 6.11 (15:50) 3.33 (15:50) 0 0 0 0 0
14-01-2021 10.6 (13:30) -2.5 (04:30) 4.1 7.5 (10:20) 4.17 (10:40) 0 0 0 0 0
27-12-2020 9.8 (21:00) -2 (-00:0) 3.9 17.5 (21:50) 9.17 (21:40) 26.8 0 0.2 4.4 22.2
06-01-2021 6.8 (14:10) -1.9 (-00:0) 2.5 11.11 (07:50) 7.22 (07:50) 0 0 0 0 0
26-12-2020 9.4 (14:50) -1.6 (-00:0) 3.9 8.33 (12:40) 5 (14:00) 0 0 0 0 0
04-01-2021 6.4 (14:30) -1.6 (-00:0) 2.4 5.56 (14:30) 2.78 (14:20) 0.2 0 0.2 0 0
17-01-2021 15.1 (16:10) -1.5 (-00:0) 6.8 4.44 (18:10) 2.78 (13:30) 0 0 0 0 0
07-01-2021 7.1 (14:30) -1.4 (-00:0) 2.8 9.72 (05:50) 6.11 (06:00) 0 0 0 0 0
03-01-2021 6.3 (14:30) -1.4 (-00:0) 2.5 6.67 (15:20) 3.89 (15:50) 1.8 0 0.2 0.8 0.8
11-01-2021 10.2 (15:40) -1.3 (-00:0) 4.4 16.39 (00:20) 7.5 (00:20) 0 0 0 0 0
02-01-2021 7.1 (13:50) -1.2 (-00:0) 2.9 6.11 (12:10) 3.06 (12:10) 0 0 0 0 0
19-01-2021 11.3 (15:30) -1.1 (-00:0) 5.1 14.72 (22:00) 7.22 (20:30) 1 0 0 0 1
08-01-2021 7.2 (15:40) -1 (-00:0) 3.1 13.89 (12:30) 8.33 (13:00) 0 0 0 0 0
24-12-2020 9.4 (14:10) -0.6 (-00:0) 4.4 10 (22:30) 4.17 (21:20) 0.2 0 0.2 0 0
01-01-2021 5.2 (13:00) -0.6 (-00:0) 2.3 5.28 (16:00) 2.5 (14:50) 10.2 0 2.4 6.8 1
30-12-2020 6.3 (23:50) -0.6 (-00:0) 2.9 3.89 (20:10) 1.67 (13:30) 13.8 0 0.2 1.2 12.4
25-12-2020 10 (15:00) -0.4 (00:00) 4.8 15.56 (08:20) 8.33 (10:10) 0.2 0.2 0 0 0
29-12-2020 6.6 (14:00) 0.1 (00:00) 3.3 9.44 (15:00) 4.44 (15:20) 5.8 3.6 0.4 1.6 0.2
15-01-2021 13.5 (14:50) 0.1 (00:00) 6.8 8.06 (10:50) 5 (10:50) 0 0 0 0 0
23-12-2020 11.8 (00:00) 1.1 (23:59) 6.5 9.17 (00:40) 4.44 (06:30) 36.6 33.6 2.8 0.2 0
09-01-2021 6.6 (14:40) 1.2 (00:00) 3.9 16.11 (23:50) 7.5 (10:10) 0 0 0 0 0
18-01-2021 16 (14:40) 1.3 (00:00) 8.6 4.17 (05:40) 2.5 (05:10) 0 0 0 0 0
31-12-2020 8.2 (11:50) 1.9 (00:00) 5 11.11 (12:10) 5.83 (13:00) 22.2 8 10.2 2.6 1.4
28-12-2020 8.2 (00:00) 2.6 (00:00) 5.4 18.61 (00:10) 7.22 (00:10) 21 4.6 2.6 10.8 3
10-01-2021 8.3 (15:10) 3.4 (23:00) 5.9 16.67 (04:30) 8.06 (23:10) 0 0 0 0 0
20-01-2021 10.7 (13:10) 7.7 (00:00) 9.2 18.06 (14:20) 7.78 (12:10) 50 10 13 18.4 8.6
21-01-2021 11.5 (14:20) 9.2 (00:00) 10.3 22.5 (23:59) 10.28 (23:59) 52.6 4.6 22 7.4 18.6

Gráficas

Temp. máximas Temp. mínimas Temp. medias Precipitaciones Rachas de viento máximas Velocidades máximas media en intervalos de 10 minutos

Datos horarios

Fecha y hora oficial Temperatura (ºC) Velocidad del viento (km/h) Dirección del viento Racha (km/h) Dirección de racha Precipitación (mm) Presión (hPa) Tendencia (hPa) Humedad (%)
2021-01-21 23:00:00 9.4 12 Sur 42 Sudoeste 3 -- -- 96
2021-01-21 22:00:00 9.5 13 Sur 50 Sudoeste 1.6 -- -- 95
2021-01-21 21:00:00 9.7 15 Sudoeste 43 Sudoeste 3.6 -- -- 92
2021-01-21 20:00:00 10.1 15 Sudoeste 45 Sudoeste 0.2 -- -- 91
2021-01-21 19:00:00 10.3 18 Sudoeste 37 Sudoeste 0.6 -- -- 92
2021-01-21 18:00:00 10.4 18 Sudoeste 43 Sudoeste 0.8 -- -- 93
2021-01-21 17:00:00 10.6 13 Sudoeste 39 Sudoeste 0.6 -- -- 94
2021-01-21 16:00:00 11 12 Oeste 35 Sudoeste 1 -- -- 95
2021-01-21 15:00:00 11.1 14 Oeste 43 Sudoeste 0.2 -- -- 96
2021-01-21 14:00:00 11.4 19 Sudoeste 40 Sudoeste 1.4 -- -- 97
2021-01-21 13:00:00 11.3 17 Oeste 42 Oeste 3.4 -- -- 98
2021-01-21 12:00:00 11 15 Oeste 45 Oeste 3.2 -- -- 98
2021-01-21 11:00:00 10.5 17 Oeste 47 Sudoeste 7 -- -- 98
2021-01-21 10:00:00 10 19 Sudoeste 48 Sudoeste 4.6 -- -- 98
2021-01-21 09:00:00 10 18 Sur 41 Sudoeste 4.6 -- -- 98
2021-01-21 08:00:00 9.7 13 Sudoeste 42 Sudoeste 2.4 -- -- 99
2021-01-21 07:00:00 9.4 16 Sudoeste 34 Sudoeste 0.2 -- -- 99
2021-01-21 06:00:00 9.3 12 Sudoeste 33 Sudoeste 0.2 -- -- 98
2021-01-21 05:00:00 9.3 14 Sudoeste 39 Sudoeste 1 -- -- 99
2021-01-21 04:00:00 9.3 11 Sudoeste 26 Oeste 1.4 -- -- 99
2021-01-21 03:00:00 9.2 6 Oeste 29 Sudoeste 0.2 -- -- 98
2021-01-21 02:00:00 9.3 10 Sudoeste 22 Oeste 0.2 -- -- 98
2021-01-21 01:00:00 9.5 12 Sudoeste 31 Oeste 1.6 -- -- 98
2021-01-21 00:00:00 9.6 13 Oeste 35 Sudoeste 2.8 -- -- 97
2021-01-20 23:00:00 9.7 11 Oeste 36 Oeste 1.6 -- -- 97
2021-01-20 22:00:00 9.8 11 Oeste 34 Oeste 1.4 -- -- 97
2021-01-20 21:00:00 9.9 15 Oeste 37 Oeste 0.6 -- -- 97
2021-01-20 20:00:00 10 11 Sudoeste 29 Sudoeste 0.8 -- -- 97
2021-01-20 19:00:00 10.1 12 Oeste 33 Oeste 1.4 -- -- 97
2021-01-20 18:00:00 10.2 13 Oeste 47 Sudoeste 0.4 -- -- 96
2021-01-20 17:00:00 10.1 19 Oeste 45 Sudoeste 2.6 -- -- 96
2021-01-20 16:00:00 10.6 18 Oeste 54 Oeste 1 -- -- 96
2021-01-20 15:00:00 10.5 22 Oeste 65 Oeste 7.8 -- -- 96
2021-01-20 14:00:00 10.7 24 Sudoeste 51 Sur 3.8 -- -- 96
2021-01-20 13:00:00 10.6 18 Sudoeste 60 Sudoeste 2.8 -- -- 96
2021-01-20 12:00:00 10.5 23 Sudoeste 57 Sudoeste 5.6 -- -- 96
2021-01-20 11:00:00 10.2 22 Sudoeste 55 Sudoeste 2.6 -- -- 95
2021-01-20 10:00:00 9.6 17 Sur 36 Sudoeste 4 -- -- 97
2021-01-20 09:00:00 9.5 20 Sur 38 Sudoeste 0 -- -- 96
2021-01-20 08:00:00 9.2 17 Sur 36 Sudoeste 0.8 -- -- 96
2021-01-20 07:00:00 8.8 13 Sur 36 Sur 0 -- -- 95
2021-01-20 06:00:00 8.6 13 Sur 39 Sudeste 0.8 -- -- 95
2021-01-20 05:00:00 8.5 12 Sur 43 Sur 1.4 -- -- 93
2021-01-20 04:00:00 8.6 19 Sur 51 Sudoeste 1.4 -- -- 93
2021-01-20 03:00:00 8.2 18 Sur 42 Sudeste 2.8 -- -- 92
2021-01-20 02:00:00 7.9 18 Sur 44 Sur 2 -- -- 92
2021-01-20 01:00:00 7.7 17 Sur 41 Sudeste 1.6 -- -- 91
2021-01-20 00:00:00 7.8 15 Sur 45 Sudeste 0.8 -- -- 89
2021-01-19 23:00:00 8.1 19 Sur 45 Sur 0.2 -- -- 86
2021-01-19 22:00:00 9 22 Sur 53 Sur 0 -- -- 80
2021-01-19 21:00:00 9.3 21 Sur 51 Sur 0 -- -- 78
2021-01-19 20:00:00 9.8 15 Sur 44 Sudoeste 0 -- -- 75
2021-01-19 19:00:00 9.7 17 Sur 39 Sur 0 -- -- 76
2021-01-19 18:00:00 9.9 19 Sur 37 Sudeste 0 -- -- 75
2021-01-19 17:00:00 10.1 21 Sur 46 Sudoeste 0 -- -- 73
2021-01-19 16:00:00 10.5 18 Sudoeste 39 Sur 0 -- -- 70
2021-01-19 15:00:00 10.5 13 Sur 44 Sur 0 -- -- 73
2021-01-19 14:00:00 9.4 18 Sudoeste 40 Sudoeste 0 -- -- 75
2021-01-19 13:00:00 9.3 16 Sur 36 Sur 0 -- -- 67
2021-01-19 12:00:00 9 16 Sudoeste 29 Sudoeste 0 -- -- 66
2021-01-19 11:00:00 8.8 14 Sur 35 Sudoeste 0 -- -- 65
2021-01-19 10:00:00 8.2 13 Sur 29 Sudoeste 0 -- -- 67
2021-01-19 09:00:00 8 11 Sur 27 Sudoeste 0 -- -- 71
2021-01-19 08:00:00 6.3 6 Sur 18 Sur 0 -- -- 85
2021-01-19 07:00:00 5.7 2 Sur 16 Sur 0 -- -- 87
2021-01-19 06:00:00 4 5 Sur 15 Sur 0 -- -- 100
2021-01-19 05:00:00 -0.6 4 Noroeste 8 Noroeste 0 -- -- 99
2021-01-19 04:00:00 -0.6 5 Norte 8 Noroeste 0 -- -- 98
2021-01-19 03:00:00 -0.8 5 Noroeste 8 Noroeste 0 -- -- 96
2021-01-19 02:00:00 0 4 Noroeste 9 Noroeste 0 -- -- 95
2021-01-19 01:00:00 0.3 5 Noroeste 8 Noroeste 0 -- -- 95
2021-01-19 00:00:00 1.3 4 Noroeste 9 Noroeste 0 -- -- 94
2021-01-18 23:00:00 2.9 3 Norte 10 Este 0 -- -- 93
2021-01-18 22:00:00 2.9 3 Norte 6 Noroeste 0 -- -- 92
2021-01-18 21:00:00 4.8 2 Norte 9 Noroeste 0 -- -- 89
2021-01-18 20:00:00 6 3 Norte 8 Nordeste 0 -- -- 85
2021-01-18 19:00:00 9.8 0 Calma 6 Sudoeste 0 -- -- 78
2021-01-18 18:00:00 12.5 4 Sudoeste 10 Sudoeste 0 -- -- 70
2021-01-18 17:00:00 13.8 5 Sudoeste 10 Sudoeste 0 -- -- 60
2021-01-18 16:00:00 14.7 5 Sudoeste 14 Oeste 0 -- -- 58
2021-01-18 15:00:00 15.5 6 Sudoeste 13 Sudoeste 0 -- -- 58
2021-01-18 14:00:00 15.7 7 Sudoeste 13 Sudoeste 0 -- -- 59
2021-01-18 13:00:00 14.5 3 Sudoeste 6 Sudoeste 0 -- -- 62
2021-01-18 12:00:00 12.2 0 Calma 5 Noroeste 0 -- -- 78
2021-01-18 11:00:00 7.8 3 Noroeste 7 Norte 0 -- -- 91
2021-01-18 10:00:00 5.1 6 Norte 15 Nordeste 0 -- -- 94
2021-01-18 09:00:00 3.7 8 Norte 14 Norte 0 -- -- 93
2021-01-18 08:00:00 3.5 5 Norte 14 Norte 0 -- -- 95
2021-01-18 07:00:00 4.7 4 Norte 13 Norte 0 -- -- 95
2021-01-18 06:00:00 3.6 6 Norte 15 Nordeste 0 -- -- 96
2021-01-18 05:00:00 3.5 7 Norte 14 Norte 0 -- -- 96
2021-01-18 04:00:00 3.2 8 Norte 14 Norte 0 -- -- 96
2021-01-18 03:00:00 2.1 6 Norte 13 Norte 0 -- -- 95
2021-01-18 02:00:00 2.6 8 Norte 11 Nordeste 0 -- -- 97
2021-01-18 01:00:00 4.3 4 Noroeste 7 Norte 0 -- -- 91
2021-01-18 00:00:00 5 4 Norte 9 Norte 0 -- -- 91
2021-01-17 23:00:00 6.6 3 Este 13 Este 0 -- -- 91
2021-01-17 22:00:00 7.2 4 Nordeste 15 Nordeste 0 -- -- 85
2021-01-17 21:00:00 8.3 3 Nordeste 15 Nordeste 0 -- -- 84
2021-01-17 20:00:00 9.4 6 Este 16 Este 0 -- -- 79
2021-01-17 19:00:00 10.6 7 Este 16 Este 0 -- -- 73
2021-01-17 18:00:00 12.8 8 Este 15 Este 0 -- -- 69
2021-01-17 17:00:00 13.8 4 Sur 13 Sudoeste 0 -- -- 71
2021-01-17 16:00:00 14.9 4 Oeste 14 Oeste 0 -- -- 67
2021-01-17 15:00:00 15 6 Sudoeste 12 Sudoeste 0 -- -- 68
2021-01-17 14:00:00 13.6 8 Sudoeste 15 Sudoeste 0 -- -- 71
2021-01-17 13:00:00 12.6 2 Noroeste 7 Noroeste 0 -- -- 70
2021-01-17 12:00:00 9.8 0 Calma 5 Sudoeste 0 -- -- 87
2021-01-17 11:00:00 4.1 2 Oeste 4 Noroeste 0 -- -- 98
2021-01-17 10:00:00 0.3 0 Calma 9 Nordeste 0 -- -- 98
2021-01-17 09:00:00 -1.1 2 Norte 9 Noroeste 0 -- -- 98
2021-01-17 08:00:00 -0.7 4 Nordeste 10 Nordeste 0 -- -- 97
2021-01-17 07:00:00 -0.9 0 Calma 4 Norte 0 -- -- 96
2021-01-17 06:00:00 -0.7 0 Calma 6 Noroeste 0 -- -- 96
2021-01-17 05:00:00 -0.5 0 Calma 10 Noroeste 0 -- -- 94
2021-01-17 04:00:00 -1.2 4 Norte 9 Noroeste 0 -- -- 94
2021-01-17 03:00:00 -1.3 5 Norte 11 Norte 0 -- -- 94
2021-01-17 02:00:00 -1.1 3 Norte 9 Norte 0 -- -- 92
2021-01-17 01:00:00 -1.4 4 Norte 10 Noroeste 0 -- -- 91
2021-01-17 00:00:00 -0.5 2 Nordeste 9 Noroeste 0 -- -- 88
2021-01-16 23:00:00 -0.3 4 Noroeste 7 Noroeste 0 -- -- 87
2021-01-16 22:00:00 0.3 3 Noroeste 9 Noroeste 0 -- -- 87
2021-01-16 21:00:00 1.5 3 Norte 9 Norte 0 -- -- 86
2021-01-16 20:00:00 3.3 0 Calma 8 Noroeste 0 -- -- 81
2021-01-16 19:00:00 6.5 0 Calma 4 Sur 0 -- -- 70
2021-01-16 18:00:00 9.5 0 Calma 8 Sur 0 -- -- 59
2021-01-16 17:00:00 10.9 5 Sudoeste 12 Sudoeste 0 -- -- 54
2021-01-16 16:00:00 12.7 6 Sudoeste 13 Sudoeste 0 -- -- 52
2021-01-16 15:00:00 12.8 9 Sudoeste 16 Sur 0 -- -- 45
2021-01-16 14:00:00 13.2 6 Sudoeste 11 Sudoeste 0 -- -- 40
2021-01-16 13:00:00 11.1 0 Calma 5 Noroeste 0 -- -- 42
2021-01-16 12:00:00 6.2 3 Noroeste 7 Noroeste 0 -- -- 76
2021-01-16 11:00:00 1.5 3 Norte 11 Nordeste 0 -- -- 85
2021-01-16 10:00:00 -3.6 3 Norte 10 Noroeste 0 -- -- 93
2021-01-16 09:00:00 -3.5 6 Norte 16 Nordeste 0 -- -- 89
2021-01-16 08:00:00 -4.3 4 Norte 10 Norte 0 -- -- 92
2021-01-16 07:00:00 -3.7 0 Calma 10 Norte 0 -- -- 91
2021-01-16 06:00:00 -2.7 4 Norte 12 Nordeste 0 -- -- 92
2021-01-16 05:00:00 -2.4 3 Nordeste 15 Norte 0 -- -- 90
2021-01-16 04:00:00 -2.3 4 Norte 14 Este 0 -- -- 92
2021-01-16 03:00:00 -1.8 3 Norte 13 Este 0 -- -- 93
2021-01-16 02:00:00 -1.6 5 Nordeste 16 Nordeste 0 -- -- 94
2021-01-16 01:00:00 -0.5 4 Norte 11 Noroeste 0 -- -- 93
2021-01-16 00:00:00 0.1 3 Norte 14 Nordeste 0 -- -- 92
2021-01-15 23:00:00 0.4 4 Norte 9 Nordeste 0 -- -- 91
2021-01-15 22:00:00 2.1 3 Nordeste 12 Nordeste 0 -- -- 87
2021-01-15 21:00:00 3.6 4 Nordeste 14 Este 0 -- -- 84
2021-01-15 20:00:00 5.2 6 Nordeste 14 Este 0 -- -- 81
2021-01-15 19:00:00 7.3 3 Nordeste 9 Este 0 -- -- 75
2021-01-15 18:00:00 10.2 3 Oeste 10 Oeste 0 -- -- 66
2021-01-15 17:00:00 11.1 4 Noroeste 13 Noroeste 0 -- -- 65
2021-01-15 16:00:00 12.3 8 Noroeste 16 Oeste 0 -- -- 63
2021-01-15 15:00:00 13.4 10 Sudoeste 19 Oeste 0 -- -- 59
2021-01-15 14:00:00 12.6 3 Oeste 9 Este 0 -- -- 59
2021-01-15 13:00:00 10.6 5 Este 18 Sudeste 0 -- -- 68
2021-01-15 12:00:00 9.3 8 Este 27 Este 0 -- -- 77
2021-01-15 11:00:00 7 14 Este 29 Este 0 -- -- 92
2021-01-15 10:00:00 4.7 8 Este 18 Este 0 -- -- 97
2021-01-15 09:00:00 3.6 8 Nordeste 22 Este 0 -- -- 95
2021-01-15 08:00:00 3.1 5 Nordeste 21 Este 0 -- -- 95
2021-01-15 07:00:00 5.1 7 Nordeste 23 Este 0 -- -- 94
2021-01-15 06:00:00 6.9 11 Este 23 Este 0 -- -- 93
2021-01-15 05:00:00 7 7 Nordeste 15 Este 0 -- -- 93
2021-01-15 04:00:00 7.2 9 Nordeste 16 Nordeste 0 -- -- 96
2021-01-15 03:00:00 5.4 8 Nordeste 17 Nordeste 0 -- -- 100
2021-01-15 02:00:00 3.1 2 Norte 10 Norte 0 -- -- 96
2021-01-15 01:00:00 4 0 Calma 10 Norte 0 -- -- 94
2021-01-15 00:00:00 7.7 10 Este 19 Este 0 -- -- 94
2021-01-14 23:00:00 6.2 5 Nordeste 14 Este 0 -- -- 93
2021-01-14 22:00:00 7.2 5 Este 17 Este 0 -- -- 94
2021-01-14 21:00:00 7.4 0 Calma 8 Nordeste 0 -- -- 93
2021-01-14 20:00:00 8.3 3 Norte 5 Noroeste 0 -- -- 93
2021-01-14 19:00:00 8.8 0 Calma 10 Noroeste 0 -- -- 91
2021-01-14 18:00:00 9.6 5 Norte 12 Noroeste 0 -- -- 89
2021-01-14 17:00:00 10 7 Noroeste 15 Noroeste 0 -- -- 86
2021-01-14 16:00:00 10.5 9 Noroeste 21 Noroeste 0 -- -- 83
2021-01-14 15:00:00 10.2 14 Noroeste 23 Noroeste 0 -- -- 84
2021-01-14 14:00:00 10.4 6 Este 15 Este 0 -- -- 81
2021-01-14 13:00:00 10 5 Este 15 Noroeste 0 -- -- 81
2021-01-14 12:00:00 8 5 Este 25 Este 0 -- -- 85
2021-01-14 11:00:00 5.4 13 Este 27 Nordeste 0 -- -- 92
2021-01-14 10:00:00 4.4 12 Este 26 Este 0 -- -- 95
2021-01-14 09:00:00 3.2 8 Este 18 Este 0 -- -- 98
2021-01-14 08:00:00 0.4 4 Norte 17 Nordeste 0 -- -- 97
2021-01-14 07:00:00 0.1 5 Nordeste 13 Este 0 -- -- 98
2021-01-14 06:00:00 -1.6 4 Nordeste 10 Este 0 -- -- 98
2021-01-14 05:00:00 -2.4 3 Norte 8 Nordeste 0 -- -- 97
2021-01-14 04:00:00 -2.3 3 Norte 7 Nordeste 0 -- -- 95
2021-01-14 03:00:00 -1.9 3 Norte 8 Este 0 -- -- 96
2021-01-14 02:00:00 -1.1 5 Nordeste 9 Nordeste 0 -- -- 96
2021-01-14 01:00:00 -0.4 5 Nordeste 10 Nordeste 0 -- -- 95
2021-01-14 00:00:00 -1.7 2 Norte 5 Noroeste 0 -- -- 94
2021-01-13 23:00:00 -2 3 Norte 6 Norte 0 -- -- 94
2021-01-13 22:00:00 -0.2 5 Nordeste 9 Nordeste 0 -- -- 92
2021-01-13 21:00:00 0.1 3 Norte 6 Norte 0 -- -- 90
2021-01-13 20:00:00 1.7 0 Calma 4 Nordeste 0 -- -- 86
2021-01-13 19:00:00 5.1 0 Calma 8 Noroeste 0 -- -- 80
2021-01-13 18:00:00 7.1 5 Noroeste 12 Noroeste 0 -- -- 73
2021-01-13 17:00:00 9.4 5 Sudoeste 12 Sudoeste 0 -- -- 65
2021-01-13 16:00:00 11.5 7 Sudoeste 13 Sudoeste 0 -- -- 57
2021-01-13 15:00:00 11.6 6 Sudoeste 13 Sudoeste 0 -- -- 57
2021-01-13 14:00:00 10.5 4 Sudoeste 13 Sudoeste 0 -- -- 62
2021-01-13 13:00:00 9.4 7 Sudoeste 11 Sudoeste 0 -- -- 68
2021-01-13 12:00:00 5.9 0 Calma 7 Norte 0 -- -- 86
2021-01-13 11:00:00 0.5 5 Noroeste 10 Norte 0 -- -- 95
2021-01-13 10:00:00 -2.6 3 Norte 9 Nordeste 0 -- -- 97
2021-01-13 09:00:00 -3.1 4 Norte 10 Nordeste 0 -- -- 94
2021-01-13 08:00:00 -3.3 3 Norte 9 Norte 0 -- -- 97
2021-01-13 07:00:00 -3.2 2 Norte 9 Nordeste 0 -- -- 96
2021-01-13 06:00:00 -3.5 3 Noroeste 8 Noroeste 0 -- -- 96
2021-01-13 05:00:00 -3.6 4 Noroeste 9 Nordeste 0 -- -- 96
2021-01-13 04:00:00 -3.6 3 Noroeste 8 Norte 0 -- -- 95
2021-01-13 03:00:00 -2.5 3 Norte 12 Nordeste 0 -- -- 95
2021-01-13 02:00:00 -2.8 5 Norte 8 Noroeste 0 -- -- 94
2021-01-13 01:00:00 -0.8 0 Calma 14 Norte 0 -- -- 95
2021-01-13 00:00:00 -0.9 5 Norte 13 Noroeste 0 -- -- 95
2021-01-12 23:00:00 -1.7 4 Norte 12 Norte 0 -- -- 93
2021-01-12 22:00:00 -1.4 6 Norte 11 Norte 0 -- -- 92
2021-01-12 21:00:00 0 2 Norte 7 Nordeste 0 -- -- 90
2021-01-12 20:00:00 2.1 2 Norte 10 Nordeste 0 -- -- 86
2021-01-12 19:00:00 4.7 0 Calma 6 Noroeste 0 -- -- 80
2021-01-12 18:00:00 7.1 5 Noroeste 10 Noroeste 0 -- -- 73
2021-01-12 17:00:00 8.9 5 Oeste 11 Oeste 0 -- -- 67
2021-01-12 16:00:00 10.6 7 Sudoeste 13 Sudoeste 0 -- -- 61
2021-01-12 15:00:00 10.3 5 Oeste 13 Sudoeste 0 -- -- 62
2021-01-12 14:00:00 10.5 5 Sudoeste 10 Oeste 0 -- -- 64
2021-01-12 13:00:00 9.1 3 Sudoeste 9 Sudoeste 0 -- -- 69
2021-01-12 12:00:00 6.1 2 Sudeste 4 Sur 0 -- -- 77
2021-01-12 11:00:00 0.9 3 Noroeste 7 Norte 0 -- -- 90
2021-01-12 10:00:00 -2.6 4 Norte 11 Norte 0 -- -- 92
2021-01-12 09:00:00 -2.5 5 Nordeste 12 Norte 0 -- -- 91
2021-01-12 08:00:00 -2.8 4 Norte 12 Este 0 -- -- 92
2021-01-12 07:00:00 -3.2 3 Norte 11 Este 0 -- -- 91
2021-01-12 06:00:00 -2.7 4 Norte 10 Noroeste 0 -- -- 90
2021-01-12 05:00:00 -2.2 3 Norte 13 Nordeste 0 -- -- 90
2021-01-12 04:00:00 -0.7 4 Noroeste 8 Norte 0 -- -- 86
2021-01-12 03:00:00 -0.4 4 Noroeste 11 Norte 0 -- -- 90
2021-01-12 02:00:00 -2.6 5 Noroeste 11 Noroeste 0 -- -- 90
2021-01-12 01:00:00 -1.9 4 Noroeste 8 Noroeste 0 -- -- 89
2021-01-12 00:00:00 -1.3 6 Norte 10 Norte 0 -- -- 86
2021-01-11 23:00:00 -0.6 5 Noroeste 10 Norte 0 -- -- 84
2021-01-11 22:00:00 0.7 5 Norte 13 Este 0 -- -- 76
2021-01-11 21:00:00 2.6 5 Nordeste 17 Este 0 -- -- 72
2021-01-11 20:00:00 3.4 8 Nordeste 14 Este 0 -- -- 69
2021-01-11 19:00:00 6.2 6 Este 17 Este 0 -- -- 59
2021-01-11 18:00:00 8.6 5 Este 20 Nordeste 0 -- -- 50
2021-01-11 17:00:00 9.5 4 Nordeste 22 Este 0 -- -- 48
2021-01-11 16:00:00 10.2 9 Sudeste 26 Sudeste 0 -- -- 46
2021-01-11 15:00:00 10 13 Este 25 Este 0 -- -- 47
2021-01-11 14:00:00 9.6 10 Este 30 Este 0 -- -- 49
2021-01-11 13:00:00 8.3 13 Este 33 Este 0 -- -- 51
2021-01-11 12:00:00 7 14 Este 39 Este 0 -- -- 53
2021-01-11 11:00:00 6 11 Nordeste 40 Este 0 -- -- 56
2021-01-11 10:00:00 4.1 12 Norte 29 Norte 0 -- -- 62
2021-01-11 09:00:00 2.9 8 Norte 24 Nordeste 0 -- -- 66
2021-01-11 08:00:00 3.4 6 Norte 17 Noroeste 0 -- -- 64
2021-01-11 07:00:00 3.5 5 Norte 17 Nordeste 0 -- -- 63
2021-01-11 06:00:00 2.9 5 Nordeste 19 Este 0 -- -- 67
2021-01-11 05:00:00 3.6 6 Nordeste 26 Este 0 -- -- 64
2021-01-11 04:00:00 3.2 0 Calma 29 Nordeste 0 -- -- 64
2021-01-11 03:00:00 4.1 7 Nordeste 43 Este 0 -- -- 60
2021-01-11 02:00:00 4.4 13 Este 35 Nordeste 0 -- -- 57
2021-01-11 01:00:00 3.6 6 Oeste 59 Este 0 -- -- 62
2021-01-11 00:00:00 3.6 21 Este 54 Este 0 -- -- 64
2021-01-10 23:00:00 3.4 24 Este 49 Este 0 -- -- 68
2021-01-10 22:00:00 3.8 12 Nordeste 30 Este 0 -- -- 63
2021-01-10 21:00:00 4.1 5 Noroeste 32 Este 0 -- -- 62
2021-01-10 20:00:00 4.3 6 Noroeste 28 Noroeste 0 -- -- 63
2021-01-10 19:00:00 4.8 6 Norte 30 Este 0 -- -- 61
2021-01-10 18:00:00 5.8 10 Nordeste 36 Este 0 -- -- 59
2021-01-10 17:00:00 6.9 9 Nordeste 42 Este 0 -- -- 56
2021-01-10 16:00:00 7.6 14 Nordeste 37 Este 0 -- -- 54
2021-01-10 15:00:00 8 15 Nordeste 43 Nordeste 0 -- -- 51
2021-01-10 14:00:00 7.2 14 Nordeste 49 Este 0 -- -- 57
2021-01-10 13:00:00 6.8 15 Este 58 Este 0 -- -- 56
2021-01-10 12:00:00 6.5 13 Nordeste 49 Este 0 -- -- 62
2021-01-10 11:00:00 5.8 9 Nordeste 49 Este 0 -- -- 66
2021-01-10 10:00:00 4.8 12 Nordeste 35 Este 0 -- -- 67
2021-01-10 09:00:00 4.3 9 Nordeste 35 Nordeste 0 -- -- 69
2021-01-10 08:00:00 4.2 10 Nordeste 31 Nordeste 0 -- -- 71
2021-01-10 07:00:00 4.2 9 Norte 33 Norte 0 -- -- 71
2021-01-10 06:00:00 4.6 13 Nordeste 57 Este 0 -- -- 70
2021-01-10 05:00:00 4.8 18 Este 60 Este 0 -- -- 72
2021-01-10 04:00:00 4.6 19 Nordeste 47 Nordeste 0 -- -- 71
2021-01-10 03:00:00 4.7 14 Nordeste 47 Este 0 -- -- 71
2021-01-10 02:00:00 4.6 13 Nordeste 50 Este 0 -- -- 72
2021-01-10 01:00:00 4.4 18 Nordeste 52 Este 0 -- -- 72
2021-01-10 00:00:00 4.4 17 Nordeste 58 Este 0 -- -- 73
2021-01-09 23:00:00 4 9 Nordeste 37 Norte 0 -- -- 75
2021-01-09 22:00:00 3.9 13 Nordeste 49 Este 0 -- -- 73
2021-01-09 21:00:00 3.6 14 Este 40 Nordeste 0 -- -- 75
2021-01-09 20:00:00 3.3 9 Nordeste 31 Nordeste 0 -- -- 76
2021-01-09 19:00:00 3.6 13 Nordeste 45 Nordeste 0 -- -- 71
2021-01-09 18:00:00 3.8 16 Este 44 Nordeste 0 -- -- 69
2021-01-09 17:00:00 4.5 15 Este 35 Norte 0 -- -- 66
2021-01-09 16:00:00 5.1 16 Este 48 Sudeste 0 -- -- 61
2021-01-09 15:00:00 5.7 11 Nordeste 53 Este 0 -- -- 62
2021-01-09 14:00:00 6.4 15 Nordeste 53 Este 0 -- -- 58
2021-01-09 13:00:00 5.9 19 Este 40 Nordeste 0 -- -- 59
2021-01-09 12:00:00 5 15 Este 41 Este 0 -- -- 61
2021-01-09 11:00:00 3.9 19 Este 53 Este 0 -- -- 62
2021-01-09 10:00:00 3.5 25 Este 48 Nordeste 0 -- -- 60
2021-01-09 09:00:00 2.1 17 Este 47 Este 0 -- -- 62
2021-01-09 08:00:00 1.5 17 Este 37 Este 0 -- -- 66
2021-01-09 07:00:00 1.3 13 Este 35 Nordeste 0 -- -- 65
2021-01-09 06:00:00 1.4 8 Este 33 Este 0 -- -- 66
2021-01-09 05:00:00 2.1 21 Este 37 Este 0 -- -- 62
2021-01-09 04:00:00 2.1 14 Este 34 Este 0 -- -- 62
2021-01-09 03:00:00 2.1 12 Este 33 Este -- -- -- 62
2021-01-09 02:00:00 1.8 10 Este 33 Este 0 -- -- 58
2021-01-09 01:00:00 1.9 9 Nordeste 25 Este 0 -- -- 61
2021-01-09 00:00:00 2.6 10 Este 31 Nordeste 0 -- -- 57
2021-01-08 23:00:00 3.3 9 Nordeste 29 Norte 0 -- -- 52
2021-01-08 22:00:00 2.9 5 Norte 31 Este 0 -- -- 62
2021-01-08 21:00:00 2.7 4 Norte 19 Norte 0 -- -- 68
2021-01-08 20:00:00 2.8 5 Norte 19 Este 0 -- -- 68
2021-01-08 19:00:00 3.6 5 Nordeste 22 Este 0 -- -- 64
2021-01-08 18:00:00 5 7 Nordeste 29 Nordeste 0 -- -- 57
2021-01-08 17:00:00 6 12 Nordeste 39 Este 0 -- -- 50
2021-01-08 16:00:00 6.7 17 Este 35 Este 0 -- -- 49
2021-01-08 15:00:00 6.8 18 Este 49 Este 0 -- -- 49
2021-01-08 14:00:00 6.3 19 Este 45 Este 0 -- -- 52
2021-01-08 13:00:00 5.4 30 Este 50 Este 0 -- -- 54
2021-01-08 12:00:00 5.1 22 Este 47 Este 0 -- -- 54
2021-01-08 11:00:00 3.7 28 Este 47 Este 0 -- -- 58
2021-01-08 10:00:00 3.1 22 Este 46 Este 0 -- -- 59
2021-01-08 09:00:00 2.8 24 Este 45 Este 0 -- -- 62
2021-01-08 08:00:00 0.9 14 Este 31 Este 0 -- -- 79
2021-01-08 07:00:00 -0.7 9 Este 32 Este 0 -- -- 86
2021-01-08 06:00:00 -1 12 Nordeste 30 Este 0 -- -- 87
2021-01-08 05:00:00 -0.7 13 Este 25 Este 0 -- -- 82
2021-01-08 04:00:00 0.3 8 Nordeste 25 Este 0 -- -- 78
2021-01-08 03:00:00 0.7 13 Este 22 Sudeste 0 -- -- 79
2021-01-08 02:00:00 1.1 12 Este 24 Este 0 -- -- 79
2021-01-08 01:00:00 1.3 16 Este 30 Este 0 -- -- 81
2021-01-08 00:00:00 1.5 13 Este 27 Este 0 -- -- 82
2021-01-07 23:00:00 1.5 9 Este 22 Este 0 -- -- 82
2021-01-07 22:00:00 1.9 8 Este 23 Este 0 -- -- 81
2021-01-07 21:00:00 2.1 5 Norte 21 Nordeste 0 -- -- 83
2021-01-07 20:00:00 2.6 5 Este 23 Este 0 -- -- 81
2021-01-07 19:00:00 3.6 12 Este 23 Este 0 -- -- 77
2021-01-07 18:00:00 4.9 9 Nordeste 21 Este 0 -- -- 68
2021-01-07 17:00:00 5.9 10 Nordeste 21 Este 0 -- -- 67
2021-01-07 16:00:00 6.8 8 Este 26 Este 0 -- -- 67
2021-01-07 15:00:00 7.1 10 Este 23 Este 0 -- -- 65
2021-01-07 14:00:00 6.6 10 Este 22 Sudeste 0 -- -- 66
2021-01-07 13:00:00 5.3 14 Sudeste 25 Este 0 -- -- 67
2021-01-07 12:00:00 3.6 12 Este 21 Este 0 -- -- 73
2021-01-07 11:00:00 1.7 7 Este 17 Este 0 -- -- 85
2021-01-07 10:00:00 -1 6 Nordeste 19 Este 0 -- -- 90
2021-01-07 09:00:00 -0.6 12 Este 20 Este 0 -- -- 90
2021-01-07 08:00:00 -1 8 Nordeste 33 Este 0 -- -- 90
2021-01-07 07:00:00 -0.9 17 Este 32 Este 0 -- -- 91
2021-01-07 06:00:00 -0.7 22 Este 35 Este 0 -- -- 88
2021-01-07 05:00:00 -0.6 5 Nordeste 16 Nordeste 0 -- -- 85
2021-01-07 04:00:00 0.5 6 Nordeste 21 Nordeste 0 -- -- 82
2021-01-07 03:00:00 0.1 8 Nordeste 27 Este 0 -- -- 85
2021-01-07 02:00:00 0.3 16 Este 30 Este 0 -- -- 86
2021-01-07 01:00:00 0.6 16 Este 28 Sudeste 0 -- -- 85
2021-01-07 00:00:00 1.1 9 Este 22 Este 0 -- -- 85
2021-01-06 23:00:00 1.5 5 Nordeste 21 Nordeste 0 -- -- 84
2021-01-06 22:00:00 1.8 10 Este 27 Nordeste 0 -- -- 85
2021-01-06 21:00:00 1.3 13 Este 28 Este 0 -- -- 86
2021-01-06 20:00:00 1.5 11 Este 24 Este 0 -- -- 85
2021-01-06 19:00:00 2.1 12 Nordeste 25 Este 0 -- -- 83
2021-01-06 18:00:00 3.7 9 Este 24 Este 0 -- -- 79
2021-01-06 17:00:00 5.6 10 Este 21 Este 0 -- -- 73
2021-01-06 16:00:00 6.1 9 Este 24 Este 0 -- -- 70
2021-01-06 15:00:00 6 9 Este 25 Este 0 -- -- 70
2021-01-06 14:00:00 6.7 10 Este 24 Este 0 -- -- 68
2021-01-06 13:00:00 5.8 13 Este 27 Este 0 -- -- 70
2021-01-06 12:00:00 4.6 14 Este 32 Este 0 -- -- 75
2021-01-06 11:00:00 2.3 19 Este 35 Este 0 -- -- 84
2021-01-06 10:00:00 0.7 23 Este 39 Este 0 -- -- 89
2021-01-06 09:00:00 0.6 22 Este 35 Este 0 -- -- 89
2021-01-06 08:00:00 0.2 21 Este 40 Este 0 -- -- 91
2021-01-06 07:00:00 0.5 19 Este 36 Este 0 -- -- 91
2021-01-06 06:00:00 0.2 19 Este 29 Este 0 -- -- 93
2021-01-06 05:00:00 -0.1 7 Este 16 Nordeste 0 -- -- 93
2021-01-06 04:00:00 0.4 7 Nordeste 24 Este 0 -- -- 92
2021-01-06 03:00:00 0.2 10 Este 23 Este 0 -- -- 92
2021-01-06 02:00:00 1.4 6 Este 17 Este 0 -- -- 91
2021-01-06 01:00:00 0.5 4 Nordeste 13 Este 0 -- -- 98
2021-01-06 00:00:00 -1.9 3 Norte 5 Norte 0 -- -- 96
2021-01-05 23:00:00 -1.2 2 Este 5 Norte 0 -- -- 95
2021-01-05 22:00:00 -1 0 Calma 8 Este 0 -- -- 94
2021-01-05 21:00:00 -0.3 3 Norte 9 Noroeste 0 -- -- 93
2021-01-05 20:00:00 1.2 0 Calma 5 Noroeste 0 -- -- 88
2021-01-05 19:00:00 3.1 3 Norte 12 Sudeste 0 -- -- 85
2021-01-05 18:00:00 5.1 3 Este 14 Este 0 -- -- 77
2021-01-05 17:00:00 5.6 5 Este 18 Este 0 -- -- 75
2021-01-05 16:00:00 6.3 8 Este 22 Sudeste 0 -- -- 73
2021-01-05 15:00:00 6.1 6 Este 18 Sudeste 0 -- -- 75
2021-01-05 14:00:00 6.7 9 Este 19 Este 0 -- -- 76
2021-01-05 13:00:00 5.6 8 Este 15 Este 0 -- -- 90
2021-01-05 12:00:00 1.9 3 Noroeste 5 Noroeste 0 -- -- 96
2021-01-05 11:00:00 0.1 3 Noroeste 10 Este 0 -- -- 98
2021-01-05 10:00:00 -2.3 4 Norte 10 Norte 0 -- -- 97
2021-01-05 09:00:00 -2.6 4 Nordeste 9 Noroeste 0 -- -- 97
2021-01-05 08:00:00 -2.5 3 Nordeste 10 Nordeste 0 -- -- 94
2021-01-05 07:00:00 -1.5 5 Nordeste 17 Este 0 -- -- 98
2021-01-05 06:00:00 -2.4 3 Nordeste 10 Este 0 -- -- 96
2021-01-05 05:00:00 -2.5 4 Este 10 Este 0 -- -- 99
2021-01-05 04:00:00 -3.1 3 Nordeste 6 Nordeste 0 -- -- 97
2021-01-05 03:00:00 -2.6 3 Norte 7 Nordeste 0 -- -- 97
2021-01-05 02:00:00 -2.4 0 Calma 9 Este 0 -- -- 96
2021-01-05 01:00:00 -1.2 3 Nordeste 6 Nordeste 0 -- -- 98
2021-01-05 00:00:00 -1.5 3 Nordeste 8 Este 0 -- -- 97
2021-01-04 23:00:00 -0.7 2 Noroeste 10 Este 0 -- -- 95
2021-01-04 22:00:00 -0.9 4 Norte 7 Nordeste 0 -- -- 95
2021-01-04 21:00:00 -0.2 4 Nordeste 9 Norte 0 -- -- 92
2021-01-04 20:00:00 0.7 4 Norte 11 Este 0 -- -- 91
2021-01-04 19:00:00 2.3 0 Calma 8 Este 0 -- -- 86
2021-01-04 18:00:00 4.3 0 Calma 11 Nordeste 0 -- -- 82
2021-01-04 17:00:00 5.3 3 Nordeste 14 Este 0 -- -- 79
2021-01-04 16:00:00 6.4 7 Nordeste 16 Noroeste 0 -- -- 79
2021-01-04 15:00:00 5.6 6 Noroeste 20 Noroeste 0 -- -- 83
2021-01-04 14:00:00 6 2 Este 12 Oeste 0 -- -- 91
2021-01-04 13:00:00 5.8 3 Sudoeste 9 Sudoeste 0 -- -- 96
2021-01-04 12:00:00 4.2 3 Sudoeste 5 Sudoeste 0.2 -- -- 100
2021-01-04 11:00:00 0.3 0 Calma 2 Noroeste 0 -- -- 100
2021-01-04 10:00:00 -1.3 0 Calma -- -- 0 -- -- 100
2021-01-04 09:00:00 -1.2 0 Calma -- -- 0 -- -- 100
2021-01-04 08:00:00 -0.6 0 Calma -- -- 0 -- -- 100
2021-01-04 07:00:00 -1.3 0 Calma -- -- 0 -- -- 100
2021-01-04 06:00:00 -0.9 0 Calma -- -- 0 -- -- 100
2021-01-04 05:00:00 -1.2 0 Calma -- -- 0 -- -- 100
2021-01-04 04:00:00 -1.2 0 Calma -- -- 0 -- -- 100
2021-01-04 03:00:00 -0.7 0 Calma -- -- 0 -- -- 99
2021-01-04 02:00:00 -0.5 0 Calma -- -- 0 -- -- 99
2021-01-04 01:00:00 -0.7 0 Calma 5 Norte 0 -- -- 99
2021-01-04 00:00:00 -0.3 3 Norte 7 Nordeste 0 -- -- 99
2021-01-03 23:00:00 0.9 0 Calma 3 Norte 0.2 -- -- 98
2021-01-03 22:00:00 2.4 4 Norte 11 Nordeste 0 -- -- 98
2021-01-03 21:00:00 3.1 0 Calma 4 Norte 0 -- -- 98
2021-01-03 20:00:00 4.2 0 Calma 4 Norte 0 -- -- 97
2021-01-03 19:00:00 4.5 0 Calma 5 Norte 0.6 -- -- 96
2021-01-03 18:00:00 5 3 Oeste 9 Oeste 0 -- -- 95
2021-01-03 17:00:00 5.1 4 Sudoeste 15 Noroeste 0.2 -- -- 94
2021-01-03 16:00:00 5.2 10 Noroeste 24 Oeste 0.4 -- -- 90
2021-01-03 15:00:00 6.3 10 Noroeste 23 Oeste 0 -- -- 89
2021-01-03 14:00:00 6.1 10 Noroeste 20 Noroeste 0 -- -- 94
2021-01-03 13:00:00 5.8 3 Sudoeste 7 Sudoeste 0.2 -- -- 100
2021-01-03 12:00:00 4 3 Sur 5 Sur 0.2 -- -- 100
2021-01-03 11:00:00 0.7 3 Sur 7 Noroeste 0 -- -- 100
2021-01-03 10:00:00 -0.6 3 Este 6 Este 0 -- -- 100
2021-01-03 09:00:00 -0.8 0 Calma 5 Noroeste 0 -- -- 99
2021-01-03 08:00:00 -0.1 2 Norte 5 Noroeste 0 -- -- 99
2021-01-03 07:00:00 -0.3 0 Calma 6 Nordeste 0 -- -- 99
2021-01-03 06:00:00 -0.4 2 Este 6 Nordeste 0 -- -- 99
2021-01-03 05:00:00 -1.3 0 Calma 6 Noroeste 0 -- -- 99
2021-01-03 04:00:00 -1.4 0 Calma 4 Noroeste 0 -- -- 98
2021-01-03 03:00:00 -1.4 0 Calma 7 Noroeste 0 -- -- 98
2021-01-03 02:00:00 -1.3 0 Calma 5 Noroeste 0 -- -- 98
2021-01-03 01:00:00 -1.1 0 Calma 4 Noroeste 0 -- -- 98
2021-01-03 00:00:00 -1.2 0 Calma 4 Noroeste 0 -- -- 97
2021-01-02 23:00:00 -0.9 2 Noroeste 4 Noroeste 0 -- -- 96
2021-01-02 22:00:00 -0.5 3 Noroeste 5 Este 0 -- -- 95
2021-01-02 21:00:00 0.6 3 Nordeste 8 Nordeste 0 -- -- 93
2021-01-02 20:00:00 2.4 5 Este 11 Nordeste 0 -- -- 91
2021-01-02 19:00:00 3.5 4 Nordeste 11 Este 0 -- -- 89
2021-01-02 18:00:00 5.2 2 Noroeste 9 Norte 0 -- -- 82
2021-01-02 17:00:00 6 3 Nordeste 13 Este 0 -- -- 79
2021-01-02 16:00:00 6.5 6 Nordeste 19 Este 0 -- -- 76
2021-01-02 15:00:00 6.4 6 Nordeste 15 Este 0 -- -- 82
2021-01-02 14:00:00 7 5 Norte 14 Este 0 -- -- 86